Terminal Aerodrome Forecast
Issued by NWS

Current Version | Previous Version | Graphics & Text | Print | Product List | Glossary On
Versions: 1 2 3 4 5 6 7 8 9 10 11 12 13 14 15 16 17 18 19 20 21 22 23
000
FTUS41 KPBZ 151738
TAFHLG
TAF
KHLG 151738Z 1518/1618 17010KT P6SM BKN150
     FM152300 19010KT 5SM -SHRA OVC050
     FM160200 21012KT 3SM -SHRA OVC015
     FM160500 24012KT P6SM OVC008
     FM160700 24012KT P6SM OVC010
     FM160900 25012KT P6SM OVC025=

USA.gov is the U.S. government's official web portal to all federal, state and local government web resources and services.